Time,TemperatureF,DewpointF,PressureIn,WindDirection,WindDirectionDegrees,WindSpeedMPH,WindSpeedGustMPH,Humidity,HourlyPrecipIn,Conditions,Clouds,dailyrainin,SoftwareType,DateUTC
2014-03-17 00:00:00,72.7,65.4,29.68,South,188,3.0,17.0,78,0.00,,,0.00,LWC V2.10 B1500,2014-03-17 04:00:00,
2014-03-17 00:05:00,57.0,37.6,29.98,WNW,294,1.2,2.6,48,0.00,,,0.00,WeatherCatV1.24B11,2014-03-17 04:05:00,
2014-03-17 00:10:00,72.7,65.4,29.68,South,178,3.0,17.0,78,0.00,,,0.00,LWC V2.10 B1500,2014-03-17 04:10:00,
2014-03-17 00:15:00,57.0,37.6,29.98,WNW,294,1.2,2.6,48,0.00,,,0.00,WeatherCatV1.24B11,2014-03-17 04:15:00,
2014-03-17 00:20:00,57.0,37.6,29.98,WNW,294,1.2,2.6,48,0.00,,,0.00,WeatherCatV1.24B11,2014-03-17 04:20:00,
2014-03-17 00:24:00,72.7,65.4,29.67,SSW,200,0.0,11.0,78,0.00,,,0.00,LWC V2.10 B1500,2014-03-17 04:24:00,
2014-03-17 00:25:00,72.7,65.4,29.67,SE,141,3.0,3.0,78,0.00,,,0.00,LWC V2.10 B1500,2014-03-17 04:25:00,
2014-03-17 00:30:00,72.7,65.4,29.67,South,172,6.0,7.0,78,0.00,,,0.00,LWC V2.10 B1500,2014-03-17 04:30:00,
2014-03-17 00:35:00,72.5,65.2,29.67,South,175,0.0,6.0,78,0.00,,,0.00,LWC V2.10 B1500,2014-03-17 04:35:00,
2014-03-17 00:37:00,72.5,65.2,29.67,SW,219,2.0,8.0,78,0.00,,,0.00,LWC V2.10 B1500,2014-03-17 04:37:00,
2014-03-17 00:40:00,57.0,37.6,29.98,WNW,294,1.2,2.6,48,0.00,,,0.00,WeatherCatV1.24B11,2014-03-17 04:40:00,
2014-03-17 00:42:00,72.5,65.2,29.67,WSW,253,0.0,7.0,78,0.00,,,0.00,LWC V2.10 B1500,2014-03-17 04:42:00,
2014-03-17 00:45:00,57.0,37.6,29.98,WNW,294,1.2,2.6,48,0.00,,,0.00,WeatherCatV1.24B11,2014-03-17 04:45:00,
2014-03-17 00:47:00,72.7,65.4,29.67,SW,215,6.0,11.0,78,0.00,,,0.00,LWC V2.10 B1500,2014-03-17 04:47:00,
2014-03-17 00:50:00,57.0,37.6,29.98,WNW,294,1.2,2.6,48,0.00,,,0.00,WeatherCatV1.24B11,2014-03-17 04:50:00,
2014-03-17 00:52:00,72.7,65.4,29.67,SE,126,0.0,12.0,78,0.00,,,0.00,LWC V2.10 B1500,2014-03-17 04:52:00,
2014-03-17 00:55:00,57.0,37.6,29.98,WNW,294,1.2,2.6,48,0.00,,,0.00,WeatherCatV1.24B11,2014-03-17 04:55:00,
2014-03-17 00:57:00,72.8,65.5,29.67,South,176,4.0,7.0,78,0.00,,,0.00,LWC V2.10 B1500,2014-03-17 04:57:00,
2014-03-17 01:00:00,57.0,37.6,29.98,WNW,294,1.2,2.6,48,0.00,,,0.00,WeatherCatV1.24B11,2014-03-17 05:00:00,
2014-03-17 01:02:00,72.7,65.4,29.66,SW,215,3.0,11.0,78,0.00,,,0.00,LWC V2.10 B1500,2014-03-17 05:02:00,
2014-03-17 01:05:00,57.0,37.6,29.98,WNW,294,1.2,2.7,48,0.00,,,0.00,WeatherCatV1.24B11,2014-03-17 05:05:00,
2014-03-17 01:07:00,72.7,65.4,29.66,WSW,258,4.0,12.0,78,0.00,,,0.00,LWC V2.10 B1500,2014-03-17 05:07:00,
2014-03-17 01:10:00,57.0,37.6,29.98,WNW,294,1.2,2.7,48,0.00,,,0.00,WeatherCatV1.24B11,2014-03-17 05:10:00,
2014-03-17 01:12:00,72.7,65.4,29.66,South,178,5.0,8.0,78,0.00,,,0.00,LWC V2.10 B1500,2014-03-17 05:12:00,
2014-03-17 01:15:00,57.0,37.6,29.98,WNW,294,1.2,2.7,48,0.00,,,0.00,WeatherCatV1.24B11,2014-03-17 05:15:00,
2014-03-17 01:17:00,72.7,65.1,29.65,SE,143,0.0,9.0,77,0.00,,,0.00,LWC V2.10 B1500,2014-03-17 05:17:00,
2014-03-17 01:20:00,57.0,37.6,29.98,WNW,294,1.2,2.7,48,0.00,,,0.00,WeatherCatV1.24B11,2014-03-17 05:20:00,
2014-03-17 01:22:00,72.7,65.1,29.65,SSW,192,3.0,11.0,77,0.00,,,0.00,LWC V2.10 B1500,2014-03-17 05:22:00,
2014-03-17 01:25:00,57.0,37.6,29.98,WNW,294,1.2,2.7,48,0.00,,,0.00,WeatherCatV1.24B11,2014-03-17 05:25:00,
2014-03-17 01:27:00,72.7,65.1,29.65,SSE,147,0.0,7.0,77,0.00,,,0.00,LWC V2.10 B1500,2014-03-17 05:27:00,
2014-03-17 01:30:00,57.0,37.6,29.98,WNW,294,1.2,2.7,48,0.00,,,0.00,WeatherCatV1.24B11,2014-03-17 05:30:00,
2014-03-17 01:32:00,72.7,65.1,29.64,WSW,248,3.0,3.0,77,0.00,,,0.00,LWC V2.10 B1500,2014-03-17 05:32:00,
2014-03-17 01:35:00,57.0,37.6,29.98,WNW,294,1.2,2.7,48,0.00,,,0.00,WeatherCatV1.24B11,2014-03-17 05:35:00,
2014-03-17 01:37:00,72.7,65.1,29.64,SSW,210,7.0,7.0,77,0.00,,,0.00,LWC V2.10 B1500,2014-03-17 05:37:00,
2014-03-17 01:40:00,57.0,37.6,29.98,WNW,294,1.2,2.7,48,0.00,,,0.00,WeatherCatV1.24B11,2014-03-17 05:40:00,
2014-03-17 01:42:00,72.7,65.1,29.64,East,80,0.0,7.0,77,0.00,,,0.00,LWC V2.10 B1500,2014-03-17 05:42:00,
2014-03-17 01:45:00,57.0,37.6,29.98,WNW,294,1.2,2.7,48,0.00,,,0.00,WeatherCatV1.24B11,2014-03-17 05:45:00,
2014-03-17 01:47:00,72.7,65.1,29.64,SW,226,0.0,7.0,77,0.00,,,0.00,LWC V2.10 B1500,2014-03-17 05:47:00,
2014-03-17 01:50:00,57.0,37.6,29.98,WNW,294,1.2,2.7,48,0.00,,,0.00,WeatherCatV1.24B11,2014-03-17 05:50:00,
2014-03-17 01:52:00,72.7,65.1,29.64,SSE,167,10.0,12.0,77,0.00,,,0.00,LWC V2.10 B1500,2014-03-17 05:52:00,
2014-03-17 01:55:00,57.0,37.6,29.98,WNW,294,1.2,2.7,48,0.00,,,0.00,WeatherCatV1.24B11,2014-03-17 05:55:00,
2014-03-17 01:57:00,72.8,65.2,29.64,SSE,151,0.0,10.0,77,0.00,,,0.00,LWC V2.10 B1500,2014-03-17 05:57:00,
2014-03-17 02:00:00,57.0,37.6,29.98,WNW,294,1.2,2.7,48,0.00,,,0.00,WeatherCatV1.24B11,2014-03-17 06:00:00,
2014-03-17 02:02:00,72.7,64.7,29.62,WNW,291,0.0,0.0,76,0.00,,,0.00,LWC V2.10 B1500,2014-03-17 06:02:00,
2014-03-17 02:05:00,57.0,37.6,29.98,WNW,294,1.2,2.7,48,0.00,,,0.00,WeatherCatV1.24B11,2014-03-17 06:05:00,
2014-03-17 02:07:00,72.7,64.7,29.62,WSW,251,4.0,8.0,76,0.00,,,0.00,LWC V2.10 B1500,2014-03-17 06:07:00,
2014-03-17 02:10:00,57.0,37.6,29.98,WNW,294,1.2,2.7,48,0.00,,,0.00,WeatherCatV1.24B11,2014-03-17 06:10:00,
2014-03-17 02:12:00,72.8,64.8,29.62,SE,145,0.0,7.0,76,0.00,,,0.00,LWC V2.10 B1500,2014-03-17 06:12:00,
2014-03-17 02:15:00,57.0,37.6,29.98,WNW,294,1.2,2.7,48,0.00,,,0.00,WeatherCatV1.24B11,2014-03-17 06:15:00,
2014-03-17 02:17:00,72.8,64.8,29.62,SSE,154,3.0,6.0,76,0.00,,,0.00,LWC V2.10 B1500,2014-03-17 06:17:00,
2014-03-17 02:20:00,57.0,37.6,29.98,WNW,294,1.2,2.7,48,0.00,,,0.00,WeatherCatV1.24B11,2014-03-17 06:20:00,
2014-03-17 02:22:00,72.8,64.8,29.62,SSW,208,0.0,10.0,76,0.00,,,0.00,LWC V2.10 B1500,2014-03-17 06:22:00,
2014-03-17 02:25:00,57.0,37.6,29.98,WNW,293,1.2,2.7,48,0.00,,,0.00,WeatherCatV1.24B11,2014-03-17 06:25:00,
2014-03-17 02:27:00,72.8,64.8,29.62,South,181,0.0,6.0,76,0.00,,,0.00,LWC V2.10 B1500,2014-03-17 06:27:00,
2014-03-17 02:30:00,57.0,37.6,29.98,WNW,293,1.2,2.7,48,0.00,,,0.00,WeatherCatV1.24B11,2014-03-17 06:30:00,
2014-03-17 02:31:00,72.8,64.8,29.63,SSE,167,7.0,7.0,76,0.00,,,0.00,LWC V2.10 B1500,2014-03-17 06:31:00,
2014-03-17 02:34:00,72.8,64.8,29.63,SE,131,0.0,7.0,76,0.00,,,0.00,LWC V2.10 B1500,2014-03-17 06:34:00,
2014-03-17 02:35:00,57.0,37.6,29.98,WNW,293,1.2,2.7,48,0.00,,,0.00,WeatherCatV1.24B11,2014-03-17 06:35:00,
2014-03-17 02:39:00,73.0,65.0,29.63,South,178,1.0,10.0,76,0.00,,,0.00,LWC V2.10 B1500,2014-03-17 06:39:00,
2014-03-17 02:40:00,57.0,37.6,29.98,WNW,293,1.2,2.7,48,0.00,,,0.00,WeatherCatV1.24B11,2014-03-17 06:40:00,
2014-03-17 02:44:00,73.0,65.0,29.62,SSE,151,1.0,6.0,76,0.00,,,0.00,LWC V2.10 B1500,2014-03-17 06:44:00,
2014-03-17 02:45:00,57.0,37.6,29.98,WNW,293,1.2,2.7,48,0.00,,,0.00,WeatherCatV1.24B11,2014-03-17 06:45:00,
2014-03-17 02:49:00,73.0,65.0,29.62,South,178,0.0,14.0,76,0.00,,,0.00,LWC V2.10 B1500,2014-03-17 06:49:00,
2014-03-17 02:50:00,57.0,37.6,29.98,WNW,293,1.2,2.7,48,0.00,,,0.00,WeatherCatV1.24B11,2014-03-17 06:50:00,
2014-03-17 02:54:00,73.2,65.2,29.62,SSW,212,7.0,7.0,76,0.00,,,0.00,LWC V2.10 B1500,2014-03-17 06:54:00,
2014-03-17 02:55:00,57.0,37.6,29.98,WNW,293,1.2,2.7,48,0.00,,,0.00,WeatherCatV1.24B11,2014-03-17 06:55:00,
2014-03-17 02:59:00,73.2,65.2,29.63,SSE,167,0.0,5.0,76,0.00,,,0.00,LWC V2.10 B1500,2014-03-17 06:59:00,
2014-03-17 03:00:00,57.0,37.6,29.98,WNW,293,1.2,2.7,48,0.00,,,0.00,WeatherCatV1.24B11,2014-03-17 07:00:00,
2014-03-17 03:04:00,73.2,65.2,29.63,SW,215,0.0,5.0,76,0.00,,,0.00,LWC V2.10 B1500,2014-03-17 07:04:00,
2014-03-17 03:05:00,57.0,37.6,29.98,WNW,293,1.2,2.7,48,0.00,,,0.00,WeatherCatV1.24B11,2014-03-17 07:05:00,
2014-03-17 03:09:00,73.3,65.3,29.63,SSW,209,2.0,10.0,76,0.00,,,0.00,LWC V2.10 B1500,2014-03-17 07:09:00,
2014-03-17 03:10:00,57.0,37.6,29.98,WNW,293,1.2,2.7,48,0.00,,,0.00,WeatherCatV1.24B11,2014-03-17 07:10:00,
2014-03-17 03:14:00,73.5,65.5,29.63,South,171,0.0,2.0,76,0.00,,,0.00,LWC V2.10 B1500,2014-03-17 07:14:00,
2014-03-17 03:15:00,57.0,37.6,29.98,WNW,293,1.2,2.7,48,0.00,,,0.00,WeatherCatV1.24B11,2014-03-17 07:15:00,
2014-03-17 03:19:00,73.5,65.5,29.63,SE,126,2.0,2.0,76,0.00,,,0.00,LWC V2.10 B1500,2014-03-17 07:19:00,
2014-03-17 03:20:00,57.0,37.6,29.98,WNW,293,1.2,2.7,48,0.00,,,0.00,WeatherCatV1.24B11,2014-03-17 07:20:00,
2014-03-17 03:24:00,73.5,65.1,29.63,SSE,158,1.0,6.0,75,0.00,,,0.00,LWC V2.10 B1500,2014-03-17 07:24:00,
2014-03-17 03:25:00,57.0,37.6,29.98,WNW,293,1.2,2.7,48,0.00,,,0.00,WeatherCatV1.24B11,2014-03-17 07:25:00,
2014-03-17 03:29:00,73.7,65.3,29.62,WSW,237,0.0,10.0,75,0.00,,,0.00,LWC V2.10 B1500,2014-03-17 07:29:00,
2014-03-17 03:30:00,57.0,37.6,29.98,WNW,293,1.2,2.7,48,0.00,,,0.00,WeatherCatV1.24B11,2014-03-17 07:30:00,
2014-03-17 03:34:00,73.7,65.3,29.62,NNW,342,0.0,5.0,75,0.00,,,0.00,LWC V2.10 B1500,2014-03-17 07:34:00,
2014-03-17 03:35:00,57.0,37.6,29.98,WNW,293,1.2,2.7,48,0.00,,,0.00,WeatherCatV1.24B11,2014-03-17 07:35:00,
2014-03-17 03:39:00,73.9,65.5,29.62,SW,220,0.0,6.0,75,0.00,,,0.00,LWC V2.10 B1500,2014-03-17 07:39:00,
2014-03-17 03:40:00,57.0,37.6,29.98,WNW,293,1.2,2.7,48,0.00,,,0.00,WeatherCatV1.24B11,2014-03-17 07:40:00,
2014-03-17 03:44:00,73.9,65.5,29.62,SSW,206,7.0,12.0,75,0.00,,,0.00,LWC V2.10 B1500,2014-03-17 07:44:00,
2014-03-17 03:45:00,57.0,37.6,29.98,WNW,293,1.2,2.7,48,0.00,,,0.00,WeatherCatV1.24B11,2014-03-17 07:45:00,
2014-03-17 03:49:00,73.9,65.5,29.62,SSW,208,6.0,10.0,75,0.00,,,0.00,LWC V2.10 B1500,2014-03-17 07:49:00,
2014-03-17 03:50:00,57.0,37.6,29.98,WNW,293,1.2,2.7,48,0.00,,,0.00,WeatherCatV1.24B11,2014-03-17 07:50:00,
2014-03-17 03:54:00,74.0,65.6,29.62,SSW,199,5.0,12.0,75,0.00,,,0.00,LWC V2.10 B1500,2014-03-17 07:54:00,
2014-03-17 03:55:00,57.0,37.6,29.98,WNW,293,1.2,2.7,48,0.00,,,0.00,WeatherCatV1.24B11,2014-03-17 07:55:00,
2014-03-17 03:59:00,74.0,65.6,29.61,SW,223,0.0,6.0,75,0.00,,,0.00,LWC V2.10 B1500,2014-03-17 07:59:00,
2014-03-17 04:00:00,57.0,37.6,29.98,WNW,293,1.2,2.7,48,0.00,,,0.00,WeatherCatV1.24B11,2014-03-17 08:00:00,
2014-03-17 04:04:00,74.0,65.9,29.61,South,189,0.0,6.0,76,0.00,,,0.00,LWC V2.10 B1500,2014-03-17 08:04:00,
2014-03-17 04:05:00,57.0,37.6,29.98,WNW,293,1.2,2.7,48,0.00,,,0.00,WeatherCatV1.24B11,2014-03-17 08:05:00,
2014-03-17 04:09:00,74.2,66.1,29.61,West,267,0.0,8.0,76,0.00,,,0.00,LWC V2.10 B1500,2014-03-17 08:09:00,
2014-03-17 04:10:00,57.0,37.6,29.98,WNW,293,1.2,2.7,48,0.00,,,0.00,WeatherCatV1.24B11,2014-03-17 08:10:00,
2014-03-17 04:14:00,74.2,66.1,29.61,SSW,208,2.0,8.0,76,0.00,,,0.00,LWC V2.10 B1500,2014-03-17 08:14:00,
2014-03-17 04:15:00,57.0,37.6,29.98,WNW,293,1.2,2.7,48,0.00,,,0.00,WeatherCatV1.24B11,2014-03-17 08:15:00,
2014-03-17 04:19:00,74.2,66.1,29.61,SW,224,0.0,14.0,76,0.00,,,0.00,LWC V2.10 B1500,2014-03-17 08:19:00,
2014-03-17 04:20:00,57.0,37.6,29.98,WNW,293,1.2,2.7,48,0.00,,,0.00,WeatherCatV1.24B11,2014-03-17 08:20:00,
2014-03-17 04:24:00,74.4,66.3,29.61,West,263,12.0,12.0,76,0.00,,,0.00,LWC V2.10 B1500,2014-03-17 08:24:00,
2014-03-17 04:25:00,57.0,37.6,29.98,WNW,293,1.2,2.7,48,0.00,,,0.00,WeatherCatV1.24B11,2014-03-17 08:25:00,
2014-03-17 04:29:00,74.4,66.3,29.59,SE,138,0.0,2.0,76,0.00,,,0.00,LWC V2.10 B1500,2014-03-17 08:29:00,
2014-03-17 04:30:00,57.0,37.6,29.98,WNW,293,1.2,2.7,48,0.00,,,0.00,WeatherCatV1.24B11,2014-03-17 08:30:00,
2014-03-17 04:34:00,74.4,66.3,29.59,WNW,301,3.0,10.0,76,0.00,,,0.00,LWC V2.10 B1500,2014-03-17 08:34:00,
2014-03-17 04:35:00,57.0,37.6,29.98,WNW,293,1.2,2.7,48,0.00,,,0.00,WeatherCatV1.24B11,2014-03-17 08:35:00,
2014-03-17 04:39:00,74.4,66.3,29.59,SW,227,5.0,9.0,76,0.00,,,0.00,LWC V2.10 B1500,2014-03-17 08:39:00,
2014-03-17 04:40:00,57.0,37.6,29.98,WNW,293,1.2,2.7,48,0.00,,,0.00,WeatherCatV1.24B11,2014-03-17 08:40:00,
2014-03-17 04:44:00,74.4,66.7,29.58,West,275,7.0,8.0,77,0.00,,,0.00,LWC V2.10 B1500,2014-03-17 08:44:00,
2014-03-17 04:45:00,57.1,37.6,29.98,WNW,293,1.2,2.7,48,0.00,,,0.00,WeatherCatV1.24B11,2014-03-17 08:45:00,
2014-03-17 04:49:00,74.4,66.7,29.58,SSW,212,4.0,10.0,77,0.00,,,0.00,LWC V2.10 B1500,2014-03-17 08:49:00,
2014-03-17 04:50:00,57.1,37.6,29.98,WNW,293,1.2,2.7,48,0.00,,,0.00,WeatherCatV1.24B11,2014-03-17 08:50:00,
2014-03-17 04:54:00,74.4,66.7,29.58,SSW,210,6.0,11.0,77,0.00,,,0.00,LWC V2.10 B1500,2014-03-17 08:54:00,
2014-03-17 04:55:00,57.1,37.6,29.98,WNW,293,1.2,2.7,48,0.00,,,0.00,WeatherCatV1.24B11,2014-03-17 08:55:00,
2014-03-17 04:59:00,74.4,66.7,29.57,South,184,7.0,14.0,77,0.00,,,0.00,LWC V2.10 B1500,2014-03-17 08:59:00,
2014-03-17 05:00:00,57.1,37.6,29.98,WNW,293,1.2,2.7,48,0.00,,,0.00,WeatherCatV1.24B11,2014-03-17 09:00:00,
2014-03-17 05:04:00,74.4,67.1,29.57,SW,217,0.0,9.0,78,0.00,,,0.00,LWC V2.10 B1500,2014-03-17 09:04:00,
2014-03-17 05:05:00,57.1,37.6,29.98,WNW,293,1.2,2.7,48,0.00,,,0.00,WeatherCatV1.24B11,2014-03-17 09:05:00,
2014-03-17 05:09:00,74.4,67.1,29.57,SE,143,0.0,7.0,78,0.00,,,0.00,LWC V2.10 B1500,2014-03-17 09:09:00,
2014-03-17 05:10:00,57.1,37.6,29.98,WNW,293,1.2,2.7,48,0.00,,,0.00,WeatherCatV1.24B11,2014-03-17 09:10:00,
2014-03-17 05:14:00,74.4,67.1,29.57,SSW,200,10.0,13.0,78,0.00,,,0.00,LWC V2.10 B1500,2014-03-17 09:14:00,
2014-03-17 05:15:00,57.1,37.6,29.98,WNW,293,1.2,2.7,48,0.00,,,0.00,WeatherCatV1.24B11,2014-03-17 09:15:00,
2014-03-17 05:19:00,74.4,67.4,29.57,SSW,198,4.0,14.0,79,0.00,,,0.00,LWC V2.10 B1500,2014-03-17 09:19:00,
2014-03-17 05:20:00,57.1,37.6,29.98,WNW,293,1.2,2.7,48,0.00,,,0.00,WeatherCatV1.24B11,2014-03-17 09:20:00,
2014-03-17 05:24:00,74.4,67.4,29.57,East,95,2.0,13.0,79,0.00,,,0.00,LWC V2.10 B1500,2014-03-17 09:24:00,
2014-03-17 05:25:00,57.1,37.6,29.98,WNW,293,1.2,2.7,48,0.00,,,0.00,WeatherCatV1.24B11,2014-03-17 09:25:00,
2014-03-17 05:29:00,74.4,67.4,29.56,WSW,251,11.0,14.0,79,0.00,,,0.00,LWC V2.10 B1500,2014-03-17 09:29:00,
2014-03-17 05:30:00,57.1,37.6,29.98,WNW,293,1.2,2.7,48,0.00,,,0.00,WeatherCatV1.24B11,2014-03-17 09:30:00,
2014-03-17 05:34:00,74.4,67.4,29.56,SE,131,3.0,12.0,79,0.00,,,0.00,LWC V2.10 B1500,2014-03-17 09:34:00,
2014-03-17 05:35:00,57.1,37.6,29.98,WNW,293,1.2,2.7,48,0.00,,,0.00,WeatherCatV1.24B11,2014-03-17 09:35:00,
2014-03-17 05:39:00,74.4,67.4,29.56,South,189,3.0,6.0,79,0.00,,,0.00,LWC V2.10 B1500,2014-03-17 09:39:00,
2014-03-17 05:40:00,57.1,37.6,29.98,WNW,293,1.2,2.7,48,0.00,,,0.00,WeatherCatV1.24B11,2014-03-17 09:40:00,
2014-03-17 05:44:00,74.4,67.8,29.57,SW,230,11.0,17.0,80,0.00,,,0.00,LWC V2.10 B1500,2014-03-17 09:44:00,
2014-03-17 05:45:00,57.1,37.6,29.98,WNW,293,1.2,2.7,48,0.00,,,0.00,WeatherCatV1.24B11,2014-03-17 09:45:00,
2014-03-17 05:49:00,74.4,67.8,29.57,NW,305,4.0,13.0,80,0.00,,,0.00,LWC V2.10 B1500,2014-03-17 09:49:00,
2014-03-17 05:50:00,57.1,37.6,29.98,WNW,293,1.2,2.7,48,0.00,,,0.00,WeatherCatV1.24B11,2014-03-17 09:50:00,
2014-03-17 05:54:00,74.4,67.8,29.57,SSE,155,0.0,14.0,80,0.00,,,0.00,LWC V2.10 B1500,2014-03-17 09:54:00,
2014-03-17 05:55:00,57.1,37.6,29.98,WNW,293,1.2,2.7,48,0.00,,,0.00,WeatherCatV1.24B11,2014-03-17 09:55:00,
2014-03-17 05:59:00,74.4,67.8,29.57,SSE,162,3.0,14.0,80,0.00,,,0.00,LWC V2.10 B1500,2014-03-17 09:59:00,
2014-03-17 06:00:00,57.1,37.6,29.98,WNW,293,1.2,2.7,48,0.00,,,0.00,WeatherCatV1.24B11,2014-03-17 10:00:00,
2014-03-17 06:04:00,74.4,67.8,29.57,WNW,289,2.0,8.0,80,0.00,,,0.00,LWC V2.10 B1500,2014-03-17 10:04:00,
2014-03-17 06:05:00,57.1,37.6,29.98,WNW,293,1.2,2.7,48,0.00,,,0.00,WeatherCatV1.24B11,2014-03-17 10:05:00,
2014-03-17 06:09:00,74.4,68.2,29.57,SW,233,3.0,8.0,81,0.00,,,0.00,LWC V2.10 B1500,2014-03-17 10:09:00,
2014-03-17 06:10:00,57.1,37.6,29.98,WNW,293,1.2,2.7,48,0.00,,,0.00,WeatherCatV1.24B11,2014-03-17 10:10:00,
2014-03-17 06:14:00,74.6,68.4,29.58,South,191,1.0,6.0,81,0.00,,,0.00,LWC V2.10 B1500,2014-03-17 10:14:00,
2014-03-17 06:15:00,57.1,37.6,29.98,WNW,293,1.2,2.7,48,0.00,,,0.00,WeatherCatV1.24B11,2014-03-17 10:15:00,
2014-03-17 06:19:00,74.6,68.4,29.58,SSW,208,7.0,9.0,81,0.00,,,0.00,LWC V2.10 B1500,2014-03-17 10:19:00,
2014-03-17 06:20:00,57.1,37.6,29.98,WNW,293,1.2,2.7,48,0.00,,,0.00,WeatherCatV1.24B11,2014-03-17 10:20:00,
2014-03-17 06:24:00,74.6,68.4,29.58,WSW,257,2.0,6.0,81,0.00,,,0.00,LWC V2.10 B1500,2014-03-17 10:24:00,
2014-03-17 06:25:00,57.1,37.6,29.98,WNW,293,1.2,2.7,48,0.00,,,0.00,WeatherCatV1.24B11,2014-03-17 10:25:00,
2014-03-17 06:29:00,74.6,68.4,29.57,West,271,10.0,11.0,81,0.00,,,0.00,LWC V2.10 B1500,2014-03-17 10:29:00,
2014-03-17 06:30:00,57.1,37.6,29.98,WNW,293,1.2,2.7,48,0.00,,,0.00,WeatherCatV1.24B11,2014-03-17 10:30:00,
2014-03-17 06:34:00,74.6,68.7,29.57,South,182,2.0,5.0,82,0.00,,,0.00,LWC V2.10 B1500,2014-03-17 10:34:00,
2014-03-17 06:35:00,57.1,37.6,29.98,WNW,293,1.2,2.7,48,0.00,,,0.00,WeatherCatV1.24B11,2014-03-17 10:35:00,
2014-03-17 06:39:00,74.6,68.7,29.57,SW,215,16.0,16.0,82,0.00,,,0.00,LWC V2.10 B1500,2014-03-17 10:39:00,
2014-03-17 06:40:00,57.1,37.6,29.98,WNW,293,1.2,2.7,48,0.00,,,0.00,WeatherCatV1.24B11,2014-03-17 10:40:00,
2014-03-17 06:44:00,74.6,68.7,29.57,SSW,209,5.0,10.0,82,0.00,,,0.00,LWC V2.10 B1500,2014-03-17 10:44:00,
2014-03-17 06:45:00,57.1,37.6,29.98,WNW,293,1.2,2.7,48,0.00,,,0.00,WeatherCatV1.24B11,2014-03-17 10:45:00,
2014-03-17 06:49:00,74.6,68.7,29.57,WSW,258,6.0,11.0,82,0.00,,,0.00,LWC V2.10 B1500,2014-03-17 10:49:00,
2014-03-17 06:50:00,57.1,37.6,29.98,WNW,293,1.2,2.7,48,0.00,,,0.00,WeatherCatV1.24B11,2014-03-17 10:50:00,
2014-03-17 06:54:00,74.6,68.7,29.57,SW,236,11.0,16.0,82,0.00,,,0.00,LWC V2.10 B1500,2014-03-17 10:54:00,
2014-03-17 06:55:00,57.1,37.6,29.98,WNW,293,1.2,2.7,48,0.00,,,0.00,WeatherCatV1.24B11,2014-03-17 10:55:00,
2014-03-17 06:59:00,74.6,68.7,29.59,SW,216,5.0,11.0,82,0.00,,,0.00,LWC V2.10 B1500,2014-03-17 10:59:00,
2014-03-17 07:00:00,57.1,37.6,29.98,WNW,293,1.2,2.7,48,0.00,,,0.00,WeatherCatV1.24B11,2014-03-17 11:00:00,
2014-03-17 07:04:00,74.6,68.7,29.59,SSW,206,6.0,10.0,82,0.00,,,0.00,LWC V2.10 B1500,2014-03-17 11:04:00,
2014-03-17 07:05:00,57.1,37.6,29.98,WNW,293,1.2,2.7,48,0.00,,,0.00,WeatherCatV1.24B11,2014-03-17 11:05:00,
2014-03-17 07:09:00,74.6,69.1,29.59,South,186,6.0,7.0,83,0.00,,,0.00,LWC V2.10 B1500,2014-03-17 11:09:00,
2014-03-17 07:10:00,57.1,37.6,29.98,WNW,293,1.2,2.7,48,0.00,,,0.00,WeatherCatV1.24B11,2014-03-17 11:10:00,
2014-03-17 07:14:00,74.6,69.1,29.59,SSW,202,8.0,12.0,83,0.00,,,0.00,LWC V2.10 B1500,2014-03-17 11:14:00,
2014-03-17 07:15:00,57.1,37.6,29.98,WNW,293,1.2,2.7,48,0.00,,,0.00,WeatherCatV1.24B11,2014-03-17 11:15:00,
2014-03-17 07:19:00,74.6,69.1,29.59,West,271,0.0,3.0,83,0.00,,,0.00,LWC V2.10 B1500,2014-03-17 11:19:00,
2014-03-17 07:20:00,57.1,37.6,29.98,WNW,293,1.2,2.7,48,0.00,,,0.00,WeatherCatV1.24B11,2014-03-17 11:20:00,
2014-03-17 07:24:00,74.6,69.1,29.59,West,268,0.0,12.0,83,0.00,,,0.00,LWC V2.10 B1500,2014-03-17 11:24:00,
2014-03-17 07:25:00,57.1,37.6,29.98,WNW,293,1.2,2.7,48,0.00,,,0.00,WeatherCatV1.24B11,2014-03-17 11:25:00,
2014-03-17 07:29:00,74.6,69.1,29.59,West,281,3.0,7.0,83,0.00,,,0.00,LWC V2.10 B1500,2014-03-17 11:29:00,
2014-03-17 07:30:00,57.1,37.6,29.98,WNW,293,1.2,2.7,48,0.00,,,0.00,WeatherCatV1.24B11,2014-03-17 11:30:00,
2014-03-17 07:34:00,74.6,69.1,29.59,SE,145,2.0,7.0,83,0.00,,,0.00,LWC V2.10 B1500,2014-03-17 11:34:00,
2014-03-17 07:35:00,57.1,37.6,29.98,WNW,293,1.2,2.7,48,0.00,,,0.00,WeatherCatV1.24B11,2014-03-17 11:35:00,
2014-03-17 07:39:00,74.6,69.4,29.59,South,175,0.0,6.0,84,0.00,,,0.00,LWC V2.10 B1500,2014-03-17 11:39:00,
2014-03-17 07:40:00,57.1,37.6,29.98,WNW,293,1.2,2.7,48,0.00,,,0.00,WeatherCatV1.24B11,2014-03-17 11:40:00,
2014-03-17 07:44:00,74.6,69.4,29.60,WSW,246,2.0,6.0,84,0.00,,,0.00,LWC V2.10 B1500,2014-03-17 11:44:00,
2014-03-17 07:45:00,57.1,37.6,29.98,WNW,293,1.2,2.7,48,0.00,,,0.00,WeatherCatV1.24B11,2014-03-17 11:45:00,
2014-03-17 07:49:00,74.6,69.4,29.60,SSE,157,0.0,12.0,84,0.00,,,0.00,LWC V2.10 B1500,2014-03-17 11:49:00,
2014-03-17 07:50:00,57.1,37.6,29.98,WNW,293,1.2,2.7,48,0.00,,,0.00,WeatherCatV1.24B11,2014-03-17 11:50:00,
2014-03-17 07:54:00,74.6,69.4,29.60,South,181,4.0,8.0,84,0.00,,,0.00,LWC V2.10 B1500,2014-03-17 11:54:00,
2014-03-17 07:55:00,57.1,37.6,29.98,WNW,293,1.2,2.7,48,0.00,,,0.00,WeatherCatV1.24B11,2014-03-17 11:55:00,
2014-03-17 07:59:00,74.6,69.4,29.60,South,182,6.0,13.0,84,0.00,,,0.00,LWC V2.10 B1500,2014-03-17 11:59:00,
2014-03-17 08:00:00,57.1,37.6,29.98,WNW,293,1.2,2.7,48,0.00,,,0.00,WeatherCatV1.24B11,2014-03-17 12:00:00,
2014-03-17 08:04:00,74.6,69.4,29.60,South,191,11.0,13.0,84,0.00,,,0.00,LWC V2.10 B1500,2014-03-17 12:04:00,
2014-03-17 08:05:00,57.1,37.6,29.98,WNW,293,1.2,2.7,48,0.00,,,0.00,WeatherCatV1.24B11,2014-03-17 12:05:00,
2014-03-17 08:09:00,74.6,69.4,29.60,WSW,239,6.0,7.0,84,0.00,,,0.00,LWC V2.10 B1500,2014-03-17 12:09:00,
2014-03-17 08:10:00,57.1,37.6,29.98,WNW,293,1.2,2.7,48,0.00,,,0.00,WeatherCatV1.24B11,2014-03-17 12:10:00,
2014-03-17 08:14:00,74.6,69.4,29.59,SSW,203,13.0,14.0,84,0.00,,,0.00,LWC V2.10 B1500,2014-03-17 12:14:00,
2014-03-17 08:15:00,57.1,37.6,29.98,WNW,293,1.2,2.7,48,0.00,,,0.00,WeatherCatV1.24B11,2014-03-17 12:15:00,
2014-03-17 08:19:00,74.6,69.4,29.59,WSW,237,9.0,13.0,84,0.00,,,0.00,LWC V2.10 B1500,2014-03-17 12:19:00,
2014-03-17 08:20:00,57.1,37.6,29.98,WNW,293,1.2,2.7,48,0.00,,,0.00,WeatherCatV1.24B11,2014-03-17 12:20:00,
2014-03-17 08:24:00,74.6,69.4,29.59,SSW,203,10.0,10.0,84,0.00,,,0.00,LWC V2.10 B1500,2014-03-17 12:24:00,
2014-03-17 08:25:00,57.1,37.6,29.98,WNW,293,1.2,2.7,48,0.00,,,0.00,WeatherCatV1.24B11,2014-03-17 12:25:00,
2014-03-17 08:29:00,74.6,69.4,29.60,WSW,243,0.0,0.0,84,0.00,,,0.00,LWC V2.10 B1500,2014-03-17 12:29:00,
2014-03-17 08:30:00,57.1,37.6,29.98,WNW,293,1.2,2.7,48,0.00,,,0.00,WeatherCatV1.24B11,2014-03-17 12:30:00,
2014-03-17 08:34:00,74.6,69.4,29.60,South,188,6.0,11.0,84,0.00,,,0.00,LWC V2.10 B1500,2014-03-17 12:34:00,
2014-03-17 08:35:00,57.1,37.6,29.98,WNW,293,1.2,2.7,48,0.00,,,0.00,WeatherCatV1.24B11,2014-03-17 12:35:00,
2014-03-17 08:39:00,74.6,69.4,29.60,ESE,102,3.0,6.0,84,0.00,,,0.00,LWC V2.10 B1500,2014-03-17 12:39:00,
2014-03-17 08:40:00,57.1,37.6,29.98,WNW,293,1.2,2.7,48,0.00,,,0.00,WeatherCatV1.24B11,2014-03-17 12:40:00,
2014-03-17 08:44:00,74.6,69.4,29.60,South,174,5.0,7.0,84,0.00,,,0.00,LWC V2.10 B1500,2014-03-17 12:44:00,
2014-03-17 08:45:00,57.1,37.6,29.98,WNW,293,1.2,2.7,48,0.00,,,0.00,WeatherCatV1.24B11,2014-03-17 12:45:00,
2014-03-17 08:49:00,74.6,69.4,29.60,SW,226,5.0,13.0,84,0.00,,,0.00,LWC V2.10 B1500,2014-03-17 12:49:00,
2014-03-17 08:50:00,57.1,37.6,29.98,WNW,293,1.2,2.7,48,0.00,,,0.00,WeatherCatV1.24B11,2014-03-17 12:50:00,
2014-03-17 08:54:00,74.7,69.9,29.60,SSW,199,0.0,0.0,85,0.00,,,0.00,LWC V2.10 B1500,2014-03-17 12:54:00,
2014-03-17 08:55:00,57.1,37.6,29.98,WNW,293,1.2,2.7,48,0.00,,,0.00,WeatherCatV1.24B11,2014-03-17 12:55:00,
2014-03-17 08:59:00,74.7,69.9,29.60,SSE,168,2.0,12.0,85,0.00,,,0.00,LWC V2.10 B1500,2014-03-17 12:59:00,
2014-03-17 09:00:00,57.1,37.6,29.98,WNW,293,1.2,2.7,48,0.00,,,0.00,WeatherCatV1.24B11,2014-03-17 13:00:00,
2014-03-17 09:04:00,74.7,69.9,29.60,SSW,212,4.0,5.0,85,0.00,,,0.00,LWC V2.10 B1500,2014-03-17 13:04:00,
2014-03-17 09:05:00,57.1,37.7,29.98,WNW,293,1.2,2.7,48,0.00,,,0.00,WeatherCatV1.24B11,2014-03-17 13:05:00,
2014-03-17 09:09:00,74.7,69.9,29.60,SW,219,5.0,10.0,85,0.00,,,0.00,LWC V2.10 B1500,2014-03-17 13:09:00,
2014-03-17 09:10:00,57.1,37.7,29.98,WNW,293,1.2,2.7,48,0.00,,,0.00,WeatherCatV1.24B11,2014-03-17 13:10:00,
2014-03-17 09:14:00,74.7,69.9,29.62,South,186,0.0,6.0,85,0.00,,,0.00,LWC V2.10 B1500,2014-03-17 13:14:00,
2014-03-17 09:15:00,57.1,37.7,29.98,WNW,293,1.2,2.7,48,0.00,,,0.00,WeatherCatV1.24B11,2014-03-17 13:15:00,
2014-03-17 09:19:00,74.7,69.9,29.62,SW,230,0.0,6.0,85,0.00,,,0.00,LWC V2.10 B1500,2014-03-17 13:19:00,
2014-03-17 09:20:00,57.1,37.7,29.98,WNW,293,1.2,2.7,48,0.00,,,0.00,WeatherCatV1.24B11,2014-03-17 13:20:00,
2014-03-17 09:24:00,74.7,69.9,29.62,South,186,7.0,7.0,85,0.00,,,0.00,LWC V2.10 B1500,2014-03-17 13:24:00,
2014-03-17 09:25:00,57.1,37.7,29.98,WNW,293,1.2,2.7,48,0.00,,,0.00,WeatherCatV1.24B11,2014-03-17 13:25:00,
2014-03-17 09:29:00,74.7,69.9,29.61,WSW,240,0.0,10.0,85,0.00,,,0.00,LWC V2.10 B1500,2014-03-17 13:29:00,
2014-03-17 09:30:00,57.1,37.7,29.98,WNW,293,1.2,2.7,48,0.00,,,0.00,WeatherCatV1.24B11,2014-03-17 13:30:00,
2014-03-17 09:34:00,74.6,69.8,29.61,SSW,205,6.0,10.0,85,0.00,,,0.00,LWC V2.10 B1500,2014-03-17 13:34:00,
2014-03-17 09:35:00,57.1,37.7,29.98,WNW,293,1.2,2.7,48,0.00,,,0.00,WeatherCatV1.24B11,2014-03-17 13:35:00,
2014-03-17 09:39:00,74.6,69.8,29.61,SE,136,2.0,11.0,85,0.00,,,0.00,LWC V2.10 B1500,2014-03-17 13:39:00,
2014-03-17 09:40:00,57.1,37.7,29.98,WNW,293,1.2,2.7,48,0.00,,,0.00,WeatherCatV1.24B11,2014-03-17 13:40:00,
2014-03-17 09:44:00,74.6,69.8,29.61,SW,222,4.0,8.0,85,0.00,,,0.00,LWC V2.10 B1500,2014-03-17 13:44:00,
2014-03-17 09:45:00,57.1,37.7,29.98,WNW,293,1.2,2.7,48,0.00,,,0.00,WeatherCatV1.24B11,2014-03-17 13:45:00,
2014-03-17 09:49:00,74.6,69.8,29.61,SW,222,3.0,5.0,85,0.00,,,0.00,LWC V2.10 B1500,2014-03-17 13:49:00,
2014-03-17 09:50:00,57.1,37.7,29.98,WNW,293,1.2,2.7,48,0.00,,,0.00,WeatherCatV1.24B11,2014-03-17 13:50:00,
2014-03-17 09:54:00,74.6,70.1,29.61,SSW,209,3.0,9.0,86,0.00,,,0.00,LWC V2.10 B1500,2014-03-17 13:54:00,
2014-03-17 09:55:00,57.1,37.7,29.98,WNW,293,1.2,2.7,48,0.00,,,0.00,WeatherCatV1.24B11,2014-03-17 13:55:00,
2014-03-17 09:59:00,74.6,70.1,29.62,SE,130,2.0,3.0,86,0.00,,,0.00,LWC V2.10 B1500,2014-03-17 13:59:00,
2014-03-17 10:00:00,57.1,37.7,29.98,WNW,293,1.2,2.7,48,0.00,,,0.00,WeatherCatV1.24B11,2014-03-17 14:00:00,
2014-03-17 10:04:00,74.6,70.1,29.62,SSW,200,3.0,11.0,86,0.00,,,0.00,LWC V2.10 B1500,2014-03-17 14:04:00,
2014-03-17 10:05:00,57.1,37.7,29.98,WNW,293,1.2,2.7,48,0.00,,,0.00,WeatherCatV1.24B11,2014-03-17 14:05:00,
2014-03-17 10:09:00,74.6,70.1,29.62,WSW,256,0.0,6.0,86,0.00,,,0.00,LWC V2.10 B1500,2014-03-17 14:09:00,
2014-03-17 10:10:00,57.1,37.7,29.98,WNW,293,1.2,2.7,48,0.00,,,0.00,WeatherCatV1.24B11,2014-03-17 14:10:00,
2014-03-17 10:14:00,74.6,70.1,29.62,SSW,205,0.0,18.0,86,0.00,,,0.00,LWC V2.10 B1500,2014-03-17 14:14:00,
2014-03-17 10:15:00,57.1,37.7,29.98,WNW,293,1.2,2.7,48,0.00,,,0.00,WeatherCatV1.24B11,2014-03-17 14:15:00,
2014-03-17 10:19:00,74.6,70.1,29.62,West,278,1.0,12.0,86,0.00,,,0.00,LWC V2.10 B1500,2014-03-17 14:19:00,
2014-03-17 10:20:00,57.1,37.7,29.98,WNW,293,1.2,2.7,48,0.00,,,0.00,WeatherCatV1.24B11,2014-03-17 14:20:00,
2014-03-17 10:24:00,74.7,70.2,29.62,South,172,0.0,6.0,86,0.00,,,0.00,LWC V2.10 B1500,2014-03-17 14:24:00,
2014-03-17 10:25:00,57.1,37.7,29.98,WNW,293,1.2,2.7,48,0.00,,,0.00,WeatherCatV1.24B11,2014-03-17 14:25:00,
2014-03-17 10:29:00,74.6,70.1,29.62,West,281,5.0,7.0,86,0.00,,,0.01,LWC V2.10 B1500,2014-03-17 14:29:00,
2014-03-17 10:30:00,57.1,37.7,29.98,WNW,293,1.2,2.7,48,0.00,,,0.00,WeatherCatV1.24B11,2014-03-17 14:30:00,
2014-03-17 10:34:00,74.6,70.1,29.62,SE,128,1.0,10.0,86,0.00,,,0.01,LWC V2.10 B1500,2014-03-17 14:34:00,
2014-03-17 10:35:00,57.1,37.7,29.98,WNW,293,1.2,2.7,48,0.00,,,0.00,WeatherCatV1.24B11,2014-03-17 14:35:00,
2014-03-17 10:39:00,74.6,70.1,29.62,WNW,288,9.0,10.0,86,0.00,,,0.01,LWC V2.10 B1500,2014-03-17 14:39:00,
2014-03-17 10:40:00,57.1,37.7,29.98,WNW,293,1.2,2.7,48,0.00,,,0.00,WeatherCatV1.24B11,2014-03-17 14:40:00,
2014-03-17 10:44:00,74.6,70.5,29.63,WSW,237,4.0,7.0,87,0.00,,,0.01,LWC V2.10 B1500,2014-03-17 14:44:00,
2014-03-17 10:45:00,57.1,37.7,29.98,WNW,293,1.2,2.7,48,0.00,,,0.00,WeatherCatV1.24B11,2014-03-17 14:45:00,
2014-03-17 10:49:00,74.4,70.6,29.63,SSW,192,5.0,11.0,88,0.00,,,0.02,LWC V2.10 B1500,2014-03-17 14:49:00,
2014-03-17 10:50:00,57.1,37.7,29.98,WNW,293,1.2,2.7,48,0.00,,,0.00,WeatherCatV1.24B11,2014-03-17 14:50:00,
2014-03-17 10:54:00,74.4,70.6,29.63,West,261,2.0,12.0,88,0.09,,,0.03,LWC V2.10 B1500,2014-03-17 14:54:00,
2014-03-17 10:55:00,57.1,37.7,29.98,WNW,293,1.2,2.7,48,0.00,,,0.00,WeatherCatV1.24B11,2014-03-17 14:55:00,
2014-03-17 10:59:00,74.2,70.1,29.64,SSW,209,7.0,12.0,87,0.09,,,0.03,LWC V2.10 B1500,2014-03-17 14:59:00,
2014-03-17 11:00:00,57.1,37.7,29.98,WNW,293,1.2,2.7,48,0.00,,,0.00,WeatherCatV1.24B11,2014-03-17 15:00:00,
2014-03-17 11:04:00,74.0,70.2,29.64,SW,232,3.0,11.0,88,0.09,,,0.04,LWC V2.10 B1500,2014-03-17 15:04:00,
2014-03-17 11:05:00,57.1,37.7,29.98,WNW,293,1.2,2.7,48,0.00,,,0.00,WeatherCatV1.24B11,2014-03-17 15:05:00,
2014-03-17 11:09:00,74.0,70.2,29.64,West,264,1.0,13.0,88,0.10,,,0.05,LWC V2.10 B1500,2014-03-17 15:09:00,
2014-03-17 11:10:00,57.1,37.7,29.98,WNW,293,1.2,2.7,48,0.00,,,0.00,WeatherCatV1.24B11,2014-03-17 15:10:00,
2014-03-17 11:14:00,74.0,70.2,29.64,SSW,200,3.0,13.0,88,0.10,,,0.06,LWC V2.10 B1500,2014-03-17 15:14:00,
2014-03-17 11:15:00,57.1,37.7,29.98,WNW,293,1.2,2.7,48,0.00,,,0.00,WeatherCatV1.24B11,2014-03-17 15:15:00,
2014-03-17 11:19:00,73.9,70.1,29.64,SSW,195,1.0,14.0,88,0.27,,,0.08,LWC V2.10 B1500,2014-03-17 15:19:00,
2014-03-17 11:20:00,57.1,37.7,29.98,WNW,293,1.2,2.7,48,0.00,,,0.00,WeatherCatV1.24B11,2014-03-17 15:20:00,
2014-03-17 11:24:00,73.9,70.1,29.64,WSW,256,11.0,11.0,88,0.19,,,0.10,LWC V2.10 B1500,2014-03-17 15:24:00,
2014-03-17 11:25:00,57.1,37.7,29.98,WNW,293,1.2,2.7,48,0.00,,,0.00,WeatherCatV1.24B11,2014-03-17 15:25:00,
2014-03-17 11:29:00,73.7,69.9,29.64,WSW,247,0.0,6.0,88,0.22,,,0.12,LWC V2.10 B1500,2014-03-17 15:29:00,
2014-03-17 11:30:00,57.1,37.7,29.98,WNW,293,1.2,2.7,48,0.00,,,0.00,WeatherCatV1.24B11,2014-03-17 15:30:00,
2014-03-17 11:34:00,73.7,70.2,29.64,South,172,3.0,11.0,89,0.22,,,0.13,LWC V2.10 B1500,2014-03-17 15:34:00,
2014-03-17 11:35:00,57.1,37.7,29.98,WNW,293,1.2,2.7,48,0.00,,,0.00,WeatherCatV1.24B11,2014-03-17 15:35:00,
2014-03-17 11:39:00,73.7,70.6,29.64,WSW,244,1.0,7.0,90,0.18,,,0.15,LWC V2.10 B1500,2014-03-17 15:39:00,
2014-03-17 11:40:00,57.1,37.7,29.98,WNW,293,1.2,2.7,48,0.00,,,0.00,WeatherCatV1.24B11,2014-03-17 15:40:00,
2014-03-17 11:44:00,73.7,70.2,29.65,SW,236,6.0,10.0,89,0.16,,,0.16,LWC V2.10 B1500,2014-03-17 15:44:00,
2014-03-17 11:45:00,57.1,37.7,29.98,WNW,293,1.2,2.7,48,0.00,,,0.00,WeatherCatV1.24B11,2014-03-17 15:45:00,
2014-03-17 11:49:00,73.5,70.0,29.65,WSW,258,2.0,6.0,89,0.38,,,0.18,LWC V2.10 B1500,2014-03-17 15:49:00,
2014-03-17 11:50:00,57.1,37.7,29.98,WNW,293,1.2,2.7,48,0.00,,,0.00,WeatherCatV1.24B11,2014-03-17 15:50:00,
2014-03-17 11:54:00,73.5,70.0,29.65,West,275,0.0,10.0,89,0.19,,,0.19,LWC V2.10 B1500,2014-03-17 15:54:00,
2014-03-17 11:55:00,57.1,37.7,29.98,WNW,293,1.2,2.7,48,0.00,,,0.00,WeatherCatV1.24B11,2014-03-17 15:55:00,
2014-03-17 11:59:00,73.5,70.4,29.65,SW,224,0.0,7.0,90,0.19,,,0.21,LWC V2.10 B1500,2014-03-17 15:59:00,
2014-03-17 12:00:00,57.1,37.7,29.98,WNW,293,1.2,2.7,48,0.00,,,0.00,WeatherCatV1.24B11,2014-03-17 16:00:00,
2014-03-17 12:04:00,73.5,70.4,29.65,SSE,155,6.0,14.0,90,0.19,,,0.23,LWC V2.10 B1500,2014-03-17 16:04:00,
2014-03-17 12:05:00,57.1,37.7,29.98,WNW,293,1.2,2.7,48,0.00,,,0.00,WeatherCatV1.24B11,2014-03-17 16:05:00,
2014-03-17 12:09:00,73.3,70.2,29.65,SSW,199,5.0,8.0,90,0.41,,,0.26,LWC V2.10 B1500,2014-03-17 16:09:00,
2014-03-17 12:10:00,57.1,37.7,29.98,WNW,293,1.2,2.7,48,0.00,,,0.00,WeatherCatV1.24B11,2014-03-17 16:10:00,
2014-03-17 12:14:00,73.3,70.2,29.64,SW,216,0.0,7.0,90,0.39,,,0.29,LWC V2.10 B1500,2014-03-17 16:14:00,
2014-03-17 12:15:00,57.1,37.7,29.98,WNW,293,1.2,2.7,48,0.00,,,0.00,WeatherCatV1.24B11,2014-03-17 16:15:00,
2014-03-17 12:19:00,73.3,70.2,29.64,SE,131,2.0,11.0,90,0.43,,,0.32,LWC V2.10 B1500,2014-03-17 16:19:00,
2014-03-17 12:20:00,57.1,37.7,29.98,WNW,293,1.2,2.7,48,0.00,,,0.00,WeatherCatV1.24B11,2014-03-17 16:20:00,
2014-03-17 12:24:00,73.3,70.5,29.64,WSW,246,3.0,17.0,91,0.22,,,0.34,LWC V2.10 B1500,2014-03-17 16:24:00,
2014-03-17 12:25:00,57.1,37.7,29.98,WNW,293,1.2,2.7,48,0.00,,,0.00,WeatherCatV1.24B11,2014-03-17 16:25:00,
2014-03-17 12:29:00,73.5,70.7,29.64,WSW,257,3.0,14.0,91,0.11,,,0.35,LWC V2.10 B1500,2014-03-17 16:29:00,
2014-03-17 12:30:00,57.1,37.7,29.98,WNW,293,1.2,2.7,48,0.00,,,0.00,WeatherCatV1.24B11,2014-03-17 16:30:00,
2014-03-17 12:34:00,73.5,70.7,29.64,NW,312,5.0,11.0,91,0.14,,,0.36,LWC V2.10 B1500,2014-03-17 16:34:00,
2014-03-17 12:35:00,73.5,70.7,29.64,WSW,251,10.0,10.0,91,0.14,,,0.36,LWC V2.10 B1500,2014-03-17 16:35:00,
2014-03-17 12:40:00,71.5,67.8,29.64,NW,322,7.0,13.0,88,0.11,,,0.37,LWC V2.10 B1500,2014-03-17 16:40:00,
2014-03-17 12:45:00,69.1,65.7,29.65,NW,304,1.0,10.0,89,0.12,,,0.38,LWC V2.10 B1500,2014-03-17 16:45:00,
2014-03-17 12:50:00,67.9,64.9,29.65,NNW,340,2.0,7.0,90,0.11,,,0.39,LWC V2.10 B1500,2014-03-17 16:50:00,
2014-03-17 12:55:00,67.6,64.9,29.65,WNW,298,0.0,6.0,91,0.16,,,0.40,LWC V2.10 B1500,2014-03-17 16:55:00,
2014-03-17 13:00:00,67.4,64.7,29.65,NNW,336,0.0,7.0,91,0.23,,,0.42,LWC V2.10 B1500,2014-03-17 17:00:00,
2014-03-17 13:05:00,67.4,64.7,29.65,NW,325,4.0,7.0,91,0.17,,,0.43,LWC V2.10 B1500,2014-03-17 17:05:00,
2014-03-17 13:10:00,67.6,65.2,29.65,WNW,292,4.0,5.0,92,0.20,,,0.45,LWC V2.10 B1500,2014-03-17 17:10:00,
2014-03-17 13:15:00,67.6,65.2,29.64,NNW,344,6.0,6.0,92,0.21,,,0.47,LWC V2.10 B1500,2014-03-17 17:15:00,
2014-03-17 13:20:00,67.9,65.5,29.64,West,281,0.0,0.0,92,0.20,,,0.49,LWC V2.10 B1500,2014-03-17 17:20:00,
2014-03-17 13:25:00,68.4,66.0,29.64,South,169,0.0,3.0,92,0.19,,,0.51,LWC V2.10 B1500,2014-03-17 17:25:00,
2014-03-17 13:30:00,69.6,67.8,29.62,SSW,206,0.0,9.0,94,0.17,,,0.53,LWC V2.10 B1500,2014-03-17 17:30:00,
2014-03-17 13:35:00,71.5,69.7,29.62,South,178,5.0,6.0,94,0.19,,,0.54,LWC V2.10 B1500,2014-03-17 17:35:00,
2014-03-17 13:40:00,72.5,70.4,29.62,SW,223,2.0,8.0,93,0.20,,,0.56,LWC V2.10 B1500,2014-03-17 17:40:00,
2014-03-17 13:45:00,73.0,70.8,29.59,South,179,3.0,14.0,93,0.26,,,0.58,LWC V2.10 B1500,2014-03-17 17:45:00,
2014-03-17 13:50:00,73.2,71.0,29.59,SSW,192,2.0,7.0,93,0.18,,,0.59,LWC V2.10 B1500,2014-03-17 17:50:00,
2014-03-17 13:55:00,73.3,71.1,29.59,NW,320,2.0,12.0,93,0.24,,,0.62,LWC V2.10 B1500,2014-03-17 17:55:00,
2014-03-17 14:00:00,73.3,71.1,29.60,SW,217,6.0,17.0,93,0.21,,,0.63,LWC V2.10 B1500,2014-03-17 18:00:00,
2014-03-17 14:05:00,73.0,70.5,29.60,North,352,9.0,12.0,92,0.16,,,0.65,LWC V2.10 B1500,2014-03-17 18:05:00,
2014-03-17 14:10:00,71.6,69.1,29.60,WSW,251,7.0,12.0,92,0.19,,,0.66,LWC V2.10 B1500,2014-03-17 18:10:00,
2014-03-17 14:15:00,70.4,68.0,29.60,WNW,299,2.0,5.0,92,0.23,,,0.68,LWC V2.10 B1500,2014-03-17 18:15:00,
2014-03-17 14:20:00,69.9,67.8,29.60,WSW,248,3.0,7.0,93,0.23,,,0.70,LWC V2.10 B1500,2014-03-17 18:20:00,
2014-03-17 14:25:00,69.8,67.7,29.60,WSW,250,7.0,17.0,93,0.29,,,0.72,LWC V2.10 B1500,2014-03-17 18:25:00,
2014-03-17 14:30:00,69.6,67.5,29.59,NW,316,5.0,14.0,93,0.18,,,0.73,LWC V2.10 B1500,2014-03-17 18:30:00,
2014-03-17 14:35:00,69.6,67.5,29.59,NW,313,3.0,13.0,93,0.17,,,0.75,LWC V2.10 B1500,2014-03-17 18:35:00,
2014-03-17 14:40:00,69.1,67.0,29.59,NW,316,3.0,11.0,93,0.18,,,0.76,LWC V2.10 B1500,2014-03-17 18:40:00,
2014-03-17 14:45:00,68.8,66.7,29.59,WNW,298,1.0,11.0,93,0.18,,,0.78,LWC V2.10 B1500,2014-03-17 18:45:00,
2014-03-17 14:50:00,68.4,66.3,29.59,West,270,8.0,8.0,93,0.16,,,0.79,LWC V2.10 B1500,2014-03-17 18:50:00,
2014-03-17 14:55:00,68.6,66.5,29.59,West,260,3.0,11.0,93,0.17,,,0.81,LWC V2.10 B1500,2014-03-17 18:55:00,
2014-03-17 15:00:00,68.6,66.8,29.60,SSW,212,2.0,10.0,94,0.21,,,0.82,LWC V2.10 B1500,2014-03-17 19:00:00,
2014-03-17 15:05:00,68.6,67.1,29.60,North,8,0.0,8.0,95,0.20,,,0.84,LWC V2.10 B1500,2014-03-17 19:05:00,
2014-03-17 15:10:00,68.6,66.8,29.60,NW,323,2.0,6.0,94,0.13,,,0.85,LWC V2.10 B1500,2014-03-17 19:10:00,
2014-03-17 15:15:00,68.4,66.6,29.60,NNE,21,0.0,3.0,94,0.18,,,0.86,LWC V2.10 B1500,2014-03-17 19:15:00,
2014-03-17 15:20:00,68.3,66.5,29.60,West,260,4.0,10.0,94,0.14,,,0.87,LWC V2.10 B1500,2014-03-17 19:20:00,
2014-03-17 15:25:00,68.3,66.5,29.60,WNW,288,0.0,6.0,94,0.16,,,0.89,LWC V2.10 B1500,2014-03-17 19:25:00,
2014-03-17 15:30:00,68.3,66.5,29.60,SW,223,1.0,2.0,94,0.19,,,0.90,LWC V2.10 B1500,2014-03-17 19:30:00,
2014-03-17 15:35:00,68.3,66.5,29.60,WNW,287,0.0,7.0,94,0.14,,,0.92,LWC V2.10 B1500,2014-03-17 19:35:00,
2014-03-17 15:40:00,68.3,66.5,29.60,NW,308,0.0,2.0,94,0.14,,,0.93,LWC V2.10 B1500,2014-03-17 19:40:00,
2014-03-17 15:45:00,68.1,66.3,29.61,West,281,0.0,6.0,94,0.17,,,0.94,LWC V2.10 B1500,2014-03-17 19:45:00,
2014-03-17 15:50:00,68.1,66.3,29.61,WNW,299,0.0,3.0,94,0.13,,,0.95,LWC V2.10 B1500,2014-03-17 19:50:00,
2014-03-17 15:55:00,67.9,66.1,29.61,West,260,5.0,11.0,94,0.15,,,0.96,LWC V2.10 B1500,2014-03-17 19:55:00,
2014-03-17 16:00:00,67.9,66.1,29.60,WNW,301,0.0,4.0,94,0.11,,,0.97,LWC V2.10 B1500,2014-03-17 20:00:00,
2014-03-17 16:05:00,67.9,66.1,29.60,WNW,299,0.0,5.0,94,0.13,,,0.98,LWC V2.10 B1500,2014-03-17 20:05:00,
2014-03-17 16:10:00,67.9,66.1,29.60,WSW,251,1.0,5.0,94,0.14,,,1.00,LWC V2.10 B1500,2014-03-17 20:10:00,
2014-03-17 16:15:00,67.8,66.3,29.60,West,261,0.0,5.0,95,0.12,,,1.01,LWC V2.10 B1500,2014-03-17 20:15:00,
2014-03-17 16:20:00,67.9,66.4,29.60,WSW,254,1.0,5.0,95,0.14,,,1.02,LWC V2.10 B1500,2014-03-17 20:20:00,
2014-03-17 16:25:00,67.9,66.4,29.60,West,280,3.0,7.0,95,0.13,,,1.03,LWC V2.10 B1500,2014-03-17 20:25:00,
2014-03-17 16:30:00,67.9,66.4,29.60,WSW,239,0.0,0.0,95,0.14,,,1.04,LWC V2.10 B1500,2014-03-17 20:30:00,
2014-03-17 16:35:00,68.1,66.6,29.60,SSE,161,0.0,6.0,95,0.12,,,1.05,LWC V2.10 B1500,2014-03-17 20:35:00,
2014-03-17 16:40:00,68.1,66.6,29.60,West,270,5.0,11.0,95,0.14,,,1.06,LWC V2.10 B1500,2014-03-17 20:40:00,
2014-03-17 16:45:00,67.9,66.4,29.60,WNW,282,0.0,6.0,95,0.12,,,1.07,LWC V2.10 B1500,2014-03-17 20:45:00,
2014-03-17 16:50:00,68.1,66.6,29.60,West,268,0.0,0.0,95,0.13,,,1.08,LWC V2.10 B1500,2014-03-17 20:50:00,
2014-03-17 16:55:00,68.1,66.6,29.60,West,268,0.0,0.0,95,0.11,,,1.09,LWC V2.10 B1500,2014-03-17 20:55:00,
2014-03-17 17:00:00,68.1,66.6,29.61,West,271,0.0,0.0,95,0.13,,,1.10,LWC V2.10 B1500,2014-03-17 21:00:00,
2014-03-17 17:05:00,68.1,66.6,29.61,West,278,0.0,0.0,95,0.10,,,1.11,LWC V2.10 B1500,2014-03-17 21:05:00,
2014-03-17 17:10:00,68.1,66.6,29.61,WNW,288,0.0,5.0,95,0.13,,,1.12,LWC V2.10 B1500,2014-03-17 21:10:00,
2014-03-17 17:15:00,68.1,66.6,29.59,NNW,328,0.0,0.0,95,0.09,,,1.13,LWC V2.10 B1500,2014-03-17 21:15:00,
2014-03-17 17:20:00,67.9,66.4,29.59,North,352,0.0,3.0,95,0.12,,,1.14,LWC V2.10 B1500,2014-03-17 21:20:00,
2014-03-17 17:25:00,67.4,65.9,29.59,NNW,330,0.0,0.0,95,0.11,,,1.15,LWC V2.10 B1500,2014-03-17 21:25:00,
2014-03-17 17:30:00,67.3,65.8,29.60,NNW,330,0.0,0.0,95,0.11,,,1.15,LWC V2.10 B1500,2014-03-17 21:30:00,
2014-03-17 17:35:00,67.1,65.6,29.60,NNW,337,0.0,0.0,95,0.11,,,1.16,LWC V2.10 B1500,2014-03-17 21:35:00,
2014-03-17 17:40:00,67.1,65.6,29.60,NNW,336,0.0,0.0,95,0.09,,,1.17,LWC V2.10 B1500,2014-03-17 21:40:00,
2014-03-17 17:45:00,67.1,65.6,29.59,North,353,0.0,0.0,95,0.12,,,1.18,LWC V2.10 B1500,2014-03-17 21:45:00,
2014-03-17 17:50:00,66.9,65.7,29.59,NNE,13,0.0,0.0,96,0.07,,,1.18,LWC V2.10 B1500,2014-03-17 21:50:00,
2014-03-17 17:55:00,66.9,65.7,29.59,NNE,13,0.0,0.0,96,0.07,,,1.19,LWC V2.10 B1500,2014-03-17 21:55:00,
2014-03-17 18:00:00,66.9,65.7,29.60,NNE,14,0.0,0.0,96,0.11,,,1.20,LWC V2.10 B1500,2014-03-17 22:00:00,
2014-03-17 18:05:00,66.9,65.7,29.60,NNW,339,3.0,4.0,96,0.07,,,1.21,LWC V2.10 B1500,2014-03-17 22:05:00,
2014-03-17 18:10:00,66.4,65.2,29.60,NNW,340,4.0,7.0,96,0.07,,,1.21,LWC V2.10 B1500,2014-03-17 22:10:00,
2014-03-17 18:15:00,66.0,64.8,29.61,North,11,1.0,1.0,96,0.11,,,1.22,LWC V2.10 B1500,2014-03-17 22:15:00,
2014-03-17 18:20:00,65.8,64.6,29.61,NNE,13,0.0,3.0,96,0.07,,,1.23,LWC V2.10 B1500,2014-03-17 22:20:00,
2014-03-17 18:25:00,65.5,64.3,29.61,NNE,17,4.0,5.0,96,0.10,,,1.24,LWC V2.10 B1500,2014-03-17 22:25:00,
2014-03-17 18:30:00,65.3,64.1,29.60,NNE,13,0.0,0.0,96,0.10,,,1.24,LWC V2.10 B1500,2014-03-17 22:30:00,
2014-03-17 18:35:00,65.5,64.3,29.60,NNE,31,0.0,0.0,96,0.07,,,1.25,LWC V2.10 B1500,2014-03-17 22:35:00,
2014-03-17 18:40:00,65.3,64.1,29.60,ESE,107,0.0,0.0,96,0.09,,,1.26,LWC V2.10 B1500,2014-03-17 22:40:00,
2014-03-17 18:45:00,65.3,64.1,29.59,East,90,0.0,0.0,96,0.09,,,1.26,LWC V2.10 B1500,2014-03-17 22:45:00,
2014-03-17 18:50:00,65.5,64.3,29.59,East,83,0.0,0.0,96,0.07,,,1.27,LWC V2.10 B1500,2014-03-17 22:50:00,
2014-03-17 18:55:00,65.6,64.4,29.59,East,85,0.0,0.0,96,0.08,,,1.27,LWC V2.10 B1500,2014-03-17 22:55:00,
2014-03-17 19:00:00,65.6,64.4,29.60,NE,38,0.0,0.0,96,0.08,,,1.28,LWC V2.10 B1500,2014-03-17 23:00:00,
2014-03-17 19:05:00,65.6,64.4,29.60,NE,35,0.0,0.0,96,0.06,,,1.29,LWC V2.10 B1500,2014-03-17 23:05:00,
2014-03-17 19:10:00,65.6,64.4,29.60,NNE,31,0.0,0.0,96,0.06,,,1.29,LWC V2.10 B1500,2014-03-17 23:10:00,
2014-03-17 19:15:00,65.6,64.4,29.60,East,85,0.0,0.0,96,0.07,,,1.30,LWC V2.10 B1500,2014-03-17 23:15:00,
2014-03-17 19:20:00,65.6,64.4,29.60,East,83,0.0,0.0,96,0.07,,,1.30,LWC V2.10 B1500,2014-03-17 23:20:00,
2014-03-17 19:25:00,65.6,64.4,29.60,East,82,0.0,2.0,96,0.05,,,1.31,LWC V2.10 B1500,2014-03-17 23:25:00,
2014-03-17 19:30:00,65.6,64.4,29.59,ENE,78,0.0,0.0,96,0.05,,,1.31,LWC V2.10 B1500,2014-03-17 23:30:00,
2014-03-17 19:35:00,65.6,64.4,29.59,East,88,0.0,0.0,96,0.07,,,1.32,LWC V2.10 B1500,2014-03-17 23:35:00,
2014-03-17 19:40:00,65.6,64.4,29.59,ENE,61,0.0,3.0,96,0.07,,,1.32,LWC V2.10 B1500,2014-03-17 23:40:00,
2014-03-17 19:45:00,65.6,64.4,29.58,ESE,107,0.0,0.0,96,0.05,,,1.32,LWC V2.10 B1500,2014-03-17 23:45:00,
2014-03-17 19:50:00,65.6,64.7,29.58,East,80,0.0,0.0,97,0.05,,,1.33,LWC V2.10 B1500,2014-03-17 23:50:00,
2014-03-17 19:55:00,65.6,64.7,29.58,East,80,0.0,0.0,97,0.05,,,1.33,LWC V2.10 B1500,2014-03-17 23:55:00,
2014-03-17 20:00:00,65.6,64.7,29.58,East,80,0.0,0.0,97,0.06,,,1.34,LWC V2.10 B1500,2014-03-18 00:00:00,
2014-03-17 20:05:00,65.8,64.9,29.58,ESE,106,3.0,3.0,97,0.06,,,1.34,LWC V2.10 B1500,2014-03-18 00:05:00,
2014-03-17 20:10:00,65.6,64.7,29.58,ESE,116,0.0,0.0,97,0.05,,,1.35,LWC V2.10 B1500,2014-03-18 00:10:00,
2014-03-17 20:15:00,65.6,64.7,29.58,ESE,113,0.0,0.0,97,0.05,,,1.35,LWC V2.10 B1500,2014-03-18 00:15:00,
2014-03-17 20:20:00,65.6,64.7,29.58,East,93,0.0,0.0,97,0.06,,,1.36,LWC V2.10 B1500,2014-03-18 00:20:00,
2014-03-17 20:25:00,65.6,64.7,29.58,East,83,0.0,1.0,97,0.06,,,1.36,LWC V2.10 B1500,2014-03-18 00:25:00,
2014-03-17 20:30:00,65.6,64.7,29.57,East,92,0.0,5.0,97,0.05,,,1.36,LWC V2.10 B1500,2014-03-18 00:30:00,
2014-03-17 20:35:00,65.6,64.7,29.57,East,92,0.0,0.0,97,0.05,,,1.37,LWC V2.10 B1500,2014-03-18 00:35:00,
2014-03-17 20:40:00,65.6,64.7,29.57,East,92,0.0,0.0,97,0.05,,,1.37,LWC V2.10 B1500,2014-03-18 00:40:00,
2014-03-17 20:45:00,65.8,64.9,29.57,East,92,0.0,0.0,97,0.07,,,1.38,LWC V2.10 B1500,2014-03-18 00:45:00,
2014-03-17 20:50:00,65.8,64.9,29.57,East,96,0.0,0.0,97,0.06,,,1.38,LWC V2.10 B1500,2014-03-18 00:50:00,
2014-03-17 20:55:00,65.8,64.9,29.57,East,96,0.0,0.0,97,0.05,,,1.39,LWC V2.10 B1500,2014-03-18 00:55:00,
2014-03-17 21:00:00,66.0,65.1,29.56,East,96,0.0,0.0,97,0.05,,,1.39,LWC V2.10 B1500,2014-03-18 01:00:00,
2014-03-17 21:05:00,66.1,65.2,29.56,East,96,0.0,0.0,97,0.06,,,1.40,LWC V2.10 B1500,2014-03-18 01:05:00,
2014-03-17 21:10:00,66.1,65.2,29.56,East,96,0.0,0.0,97,0.06,,,1.40,LWC V2.10 B1500,2014-03-18 01:10:00,
2014-03-17 21:15:00,66.3,65.4,29.57,East,96,0.0,0.0,97,0.05,,,1.40,LWC V2.10 B1500,2014-03-18 01:15:00,
2014-03-17 21:20:00,66.4,65.8,29.57,ESE,114,0.0,1.0,98,0.04,,,1.41,LWC V2.10 B1500,2014-03-18 01:20:00,
2014-03-17 21:25:00,66.4,65.5,29.57,ESE,114,0.0,0.0,97,0.04,,,1.41,LWC V2.10 B1500,2014-03-18 01:25:00,
2014-03-17 21:30:00,66.4,65.5,29.57,ESE,114,0.0,0.0,97,0.05,,,1.42,LWC V2.10 B1500,2014-03-18 01:30:00,
2014-03-17 21:35:00,66.6,66.0,29.57,SE,145,0.0,2.0,98,0.05,,,1.42,LWC V2.10 B1500,2014-03-18 01:35:00,
2014-03-17 21:40:00,67.1,66.5,29.57,South,188,0.0,0.0,98,0.05,,,1.42,LWC V2.10 B1500,2014-03-18 01:40:00,
2014-03-17 21:45:00,67.6,67.0,29.56,SE,144,0.0,5.0,98,0.04,,,1.43,LWC V2.10 B1500,2014-03-18 01:45:00,
2014-03-17 21:50:00,67.8,67.2,29.56,SE,128,0.0,0.0,98,0.04,,,1.43,LWC V2.10 B1500,2014-03-18 01:50:00,
2014-03-17 21:55:00,68.1,67.5,29.56,ESE,121,0.0,0.0,98,0.05,,,1.44,LWC V2.10 B1500,2014-03-18 01:55:00,
2014-03-17 22:00:00,68.3,67.7,29.56,South,181,0.0,0.0,98,0.05,,,1.44,LWC V2.10 B1500,2014-03-18 02:00:00,
2014-03-17 22:05:00,68.8,68.2,29.56,SW,216,1.0,3.0,98,0.05,,,1.44,LWC V2.10 B1500,2014-03-18 02:05:00,
2014-03-17 22:10:00,69.1,68.5,29.56,ESE,110,1.0,5.0,98,0.04,,,1.44,LWC V2.10 B1500,2014-03-18 02:10:00,
2014-03-17 22:15:00,69.4,68.8,29.57,SW,219,3.0,4.0,98,0.04,,,1.45,LWC V2.10 B1500,2014-03-18 02:15:00,
2014-03-17 22:20:00,69.8,69.2,29.57,SSW,200,1.0,5.0,98,0.04,,,1.45,LWC V2.10 B1500,2014-03-18 02:20:00,
2014-03-17 22:25:00,69.9,69.3,29.57,ESE,123,0.0,3.0,98,0.05,,,1.45,LWC V2.10 B1500,2014-03-18 02:25:00,
2014-03-17 22:30:00,70.1,69.5,29.57,SW,232,0.0,5.0,98,0.05,,,1.45,LWC V2.10 B1500,2014-03-18 02:30:00,
2014-03-17 22:35:00,70.3,69.7,29.57,WNW,282,0.0,5.0,98,0.05,,,1.45,LWC V2.10 B1500,2014-03-18 02:35:00,
2014-03-17 22:40:00,70.4,69.8,29.57,SW,222,0.0,0.0,98,0.00,,,1.45,LWC V2.10 B1500,2014-03-18 02:40:00,
2014-03-17 22:45:00,70.4,69.8,29.57,WSW,256,10.0,10.0,98,0.00,,,1.46,LWC V2.10 B1500,2014-03-18 02:45:00,
2014-03-17 22:50:00,70.6,70.0,29.57,NW,320,2.0,2.0,98,0.00,,,1.46,LWC V2.10 B1500,2014-03-18 02:50:00,
2014-03-17 22:55:00,70.6,70.0,29.57,West,264,0.0,8.0,98,0.00,,,1.46,LWC V2.10 B1500,2014-03-18 02:55:00,
2014-03-17 23:00:00,70.6,70.0,29.58,WNW,292,0.0,6.0,98,0.04,,,1.47,LWC V2.10 B1500,2014-03-18 03:00:00,
2014-03-17 23:05:00,70.6,70.0,29.58,WNW,282,0.0,7.0,98,0.04,,,1.47,LWC V2.10 B1500,2014-03-18 03:05:00,
2014-03-17 23:10:00,70.8,70.2,29.58,ESE,119,1.0,6.0,98,0.04,,,1.47,LWC V2.10 B1500,2014-03-18 03:10:00,
2014-03-17 23:15:00,70.6,70.0,29.57,SSW,205,1.0,6.0,98,0.00,,,1.47,LWC V2.10 B1500,2014-03-18 03:15:00,
2014-03-17 23:20:00,70.6,70.0,29.57,SE,124,2.0,10.0,98,0.00,,,1.48,LWC V2.10 B1500,2014-03-18 03:20:00,
2014-03-17 23:25:00,70.6,70.3,29.57,North,356,0.0,8.0,99,0.00,,,1.48,LWC V2.10 B1500,2014-03-18 03:25:00,
2014-03-17 23:30:00,70.6,70.3,29.57,West,272,3.0,6.0,99,0.00,,,1.48,LWC V2.10 B1500,2014-03-18 03:30:00,
2014-03-17 23:35:00,70.6,70.3,29.57,South,182,0.0,11.0,99,0.04,,,1.49,LWC V2.10 B1500,2014-03-18 03:35:00,
2014-03-17 23:40:00,70.6,70.3,29.57,West,275,3.0,12.0,99,0.04,,,1.49,LWC V2.10 B1500,2014-03-18 03:40:00,
2014-03-17 23:45:00,70.6,70.3,29.57,WSW,256,6.0,13.0,99,0.04,,,1.49,LWC V2.10 B1500,2014-03-18 03:45:00,
2014-03-17 23:50:00,70.6,70.3,29.57,WSW,248,6.0,9.0,99,0.00,,,1.49,LWC V2.10 B1500,2014-03-18 03:50:00,
2014-03-17 23:55:00,70.4,70.1,29.57,WSW,244,3.0,9.0,99,0.00,,,1.50,LWC V2.10 B1500,2014-03-18 03:55:00,